Location: D�rnast
(49.6426°N, 11.9755°E)
Time: 03:11:54
(UTC+00:00)

Cosmos 1634 Rocket - Pass Details

Date: 24 January 2021
Orbit: 960 x 991 km, 82.9° (Epoch: 24 February)

Event Time Altitude Azimuth Distance (km) Brightness Sun altitude
Rises 16:19:16 0° 349° (NNW) 3,680 6.9 -4.4°
Reaches altitude 10° 16:21:47 10° 347° (NNW) 2,733 6.2 -4.8°
Maximum altitude 16:28:01 73° 265° (W) 1,029 4.4 -5.7°
Drops below altitude 10° 16:34:16 10° 182° (S) 2,735 6.7 -6.7°
Sets 16:36:47 0° 180° (S) 3,683 7.3 -7.0°
